| time (UTC) | temp F | wind direction | speed MPH | gust MPH | rain 1hr in | rain 24hr in | rain mn in | humidity % | barometer mb |
| 20260508012513 | 57 | 350 | 10.0 | 19.0 | 0.00 | 0.00 | 0.00 | 69 | 1014.4 |
| 20260508012013 | 58 | 334 | 12.0 | 19.0 | 0.00 | 0.00 | 0.00 | 69 | 1014.4 |
| 20260508011513 | 58 | 330 | 13.0 | 19.0 | 0.00 | 0.00 | 0.00 | 69 | 1014.5 |
| 20260508011013 | 58 | 334 | 12.0 | 19.0 | 0.00 | 0.00 | 0.00 | 68 | 1014.5 |
| 20260508010513 | 58 | 344 | 12.0 | 18.0 | 0.00 | 0.00 | 0.00 | 68 | 1014.5 |
| 20260508010014 | 59 | 341 | 12.0 | 18.0 | 0.00 | 0.00 | 0.00 | 67 | 1014.5 |
| 20260508005514 | 59 | 343 | 13.0 | 18.0 | 0.00 | 0.00 | 0.00 | 66 | 1014.5 |
| 20260508005013 | 59 | 338 | 9.0 | 19.0 | 0.00 | 0.00 | 0.00 | 66 | 1014.4 |
| 20260508004513 | 59 | 345 | 11.0 | 19.0 | 0.00 | 0.00 | 0.00 | 66 | 1014.4 |
| 20260508004013 | 59 | 324 | 10.0 | 19.0 | 0.00 | 0.00 | 0.00 | 67 | 1014.5 |
| 20260508003513 | 59 | 331 | 14.0 | 21.0 | 0.00 | 0.00 | 0.00 | 65 | 1014.7 |
| 20260508003013 | 60 | 343 | 12.0 | 21.0 | 0.00 | 0.00 | 0.00 | 65 | 1014.8 |
| 20260508002513 | 60 | 331 | 13.0 | 21.0 | 0.00 | 0.00 | 0.00 | 65 | 1014.9 |
| 20260508002013 | 60 | 348 | 14.0 | 20.0 | 0.00 | 0.00 | 0.00 | 64 | 1014.8 |
| 20260508001513 | 60 | 329 | 13.0 | 21.0 | 0.00 | 0.00 | 0.00 | 65 | 1014.8 |
| 20260508001013 | 60 | 343 | 13.0 | 21.0 | 0.00 | 0.00 | 0.00 | 64 | 1014.8 |
| 20260508000513 | 60 | 334 | 13.0 | 21.0 | 0.00 | 0.00 | 0.00 | 64 | 1014.8 |
| 20260508000014 | 61 | 330 | 14.0 | 20.0 | 0.00 | 0.00 | 0.00 | 63 | 1014.8 |
| 20260507235513 | 61 | 336 | 13.0 | 20.0 | 0.00 | 0.00 | 0.00 | 63 | 1014.8 |
| 20260507235014 | 61 | 355 | 14.0 | 18.0 | 0.00 | 0.00 | 0.00 | 62 | 1014.8 |
| 20260507234513 | 61 | 347 | 14.0 | 19.0 | 0.00 | 0.00 | 0.00 | 61 | 1014.8 |
| 20260507234013 | 61 | 330 | 13.0 | 19.0 | 0.00 | 0.00 | 0.00 | 61 | 1014.8 |
| 20260507233513 | 62 | 337 | 13.0 | 19.0 | 0.00 | 0.00 | 0.00 | 60 | 1014.8 |
| 20260507233013 | 62 | 334 | 12.0 | 18.0 | 0.00 | 0.00 | 0.00 | 60 | 1014.8 |
| 20260507232513 | 62 | 316 | 10.0 | 18.0 | 0.00 | 0.00 | 0.00 | 60 | 1014.9 |
| 20260507232013 | 62 | 319 | 12.0 | 20.0 | 0.00 | 0.00 | 0.00 | 59 | 1015.0 |
| 20260507231513 | 63 | 338 | 14.0 | 20.0 | 0.00 | 0.00 | 0.00 | 59 | 1015.1 |
| 20260507231013 | 63 | 334 | 14.0 | 20.0 | 0.00 | 0.00 | 0.00 | 58 | 1015.1 |
| 20260507230513 | 63 | 343 | 13.0 | 19.0 | 0.00 | 0.00 | 0.00 | 57 | 1015.1 |
| 20260507230013 | 64 | 348 | 14.0 | 18.0 | 0.00 | 0.00 | 0.00 | 57 | 1015.2 |
| 20260507225513 | 64 | 341 | 11.0 | 18.0 | 0.00 | 0.00 | 0.00 | 58 | 1015.3 |
| 20260507225013 | 64 | 341 | 14.0 | 21.0 | 0.00 | 0.00 | 0.00 | 57 | 1015.4 |
| 20260507224513 | 64 | 337 | 11.0 | 21.0 | 0.00 | 0.00 | 0.00 | 57 | 1015.4 |
| 20260507224013 | 65 | 343 | 13.0 | 21.0 | 0.00 | 0.00 | 0.00 | 56 | 1015.5 |
| 20260507223513 | 65 | 337 | 14.0 | 18.0 | 0.00 | 0.00 | 0.00 | 55 | 1015.6 |
| 20260507223014 | 66 | 337 | 10.0 | 18.0 | 0.00 | 0.00 | 0.00 | 54 | 1015.6 |
| 20260507222513 | 66 | 348 | 10.0 | 17.0 | 0.00 | 0.00 | 0.00 | 55 | 1015.8 |
| 20260507222013 | 67 | 343 | 10.0 | 17.0 | 0.00 | 0.00 | 0.00 | 54 | 1015.8 |
| 20260507221513 | 67 | 341 | 10.0 | 17.0 | 0.00 | 0.00 | 0.00 | 53 | 1015.9 |
| 20260507221013 | 67 | 347 | 10.0 | 14.0 | 0.00 | 0.00 | 0.00 | 53 | 1015.9 |
| 20260507220513 | 68 | 347 | 8.0 | 14.0 | 0.00 | 0.00 | 0.00 | 52 | 1015.9 |
| 20260507220013 | 68 | 341 | 7.0 | 14.0 | 0.00 | 0.00 | 0.00 | 52 | 1016.0 |
| 20260507215515 | 68 | 18 | 8.0 | 14.0 | 0.00 | 0.00 | 0.00 | 52 | 1016.1 |
| 20260507215015 | 68 | 338 | 9.0 | 14.0 | 0.00 | 0.00 | 0.00 | 51 | 1016.1 |
| 20260507214513 | 68 | 350 | 7.0 | 13.0 | 0.00 | 0.00 | 0.00 | 52 | 1016.3 |
| 20260507214013 | 69 | 340 | 10.0 | 16.0 | 0.00 | 0.00 | 0.00 | 51 | 1016.3 |
| 20260507213513 | 69 | 351 | 7.0 | 16.0 | 0.00 | 0.00 | 0.00 | 51 | 1016.2 |
| 20260507213013 | 69 | 348 | 7.0 | 16.0 | 0.00 | 0.00 | 0.00 | 53 | 1016.1 |
| 20260507212514 | 69 | 343 | 9.0 | 15.0 | 0.00 | 0.00 | 0.00 | 51 | 1016.1 |
| 20260507212014 | 69 | 344 | 8.0 | 15.0 | 0.00 | 0.00 | 0.00 | 50 | 1016.1 |
| 20260507211513 | 69 | 333 | 8.0 | 15.0 | 0.00 | 0.00 | 0.00 | 51 | 1016.1 |
| 20260507211013 | 69 | 345 | 10.0 | 15.0 | 0.00 | 0.00 | 0.00 | 50 | 1016.1 |
| 20260507210516 | 69 | 345 | 9.0 | 15.0 | 0.00 | 0.00 | 0.00 | 50 | 1016.1 |
| 20260507210016 | 69 | 354 | 10.0 | 14.0 | 0.00 | 0.00 | 0.00 | 50 | 1016.0 |
| 20260507205513 | 70 | 336 | 7.0 | 14.0 | 0.00 | 0.00 | 0.00 | 51 | 1015.9 |
| 20260507205013 | 69 | 336 | 7.0 | 16.0 | 0.00 | 0.00 | 0.00 | 51 | 1016.0 |
| 20260507204513 | 69 | 338 | 8.0 | 16.0 | 0.00 | 0.00 | 0.00 | 49 | 1015.9 |
| 20260507204013 | 70 | 347 | 8.0 | 16.0 | 0.00 | 0.00 | 0.00 | 49 | 1015.9 |
| 20260507203513 | 69 | 350 | 6.0 | 14.0 | 0.00 | 0.00 | 0.00 | 51 | 1016.0 |
| 20260507203013 | 69 | 334 | 9.0 | 14.0 | 0.00 | 0.00 | 0.00 | 50 | 1016.1 |
| 20260507202513 | 69 | 340 | 7.0 | 14.0 | 0.00 | 0.00 | 0.00 | 52 | 1016.1 |
| 20260507202013 | 69 | 0 | 7.0 | 14.0 | 0.00 | 0.00 | 0.00 | 52 | 1016.2 |
| 20260507201513 | 69 | 352 | 8.0 | 14.0 | 0.00 | 0.00 | 0.00 | 52 | 1016.2 |
| 20260507201013 | 68 | 338 | 8.0 | 15.0 | 0.00 | 0.00 | 0.00 | 52 | 1016.2 |
| 20260507200513 | 68 | 350 | 9.0 | 15.0 | 0.00 | 0.00 | 0.00 | 51 | 1016.2 |
| 20260507200013 | 68 | 357 | 9.0 | 15.0 | 0.00 | 0.00 | 0.00 | 52 | 1016.2 |
| 20260507195513 | 68 | 355 | 6.0 | 12.0 | 0.00 | 0.00 | 0.00 | 50 | 1016.3 |
| 20260507195013 | 69 | 348 | 8.0 | 14.0 | 0.00 | 0.00 | 0.00 | 50 | 1016.3 |
| 20260507194513 | 69 | 348 | 7.0 | 14.0 | 0.00 | 0.00 | 0.00 | 50 | 1016.4 |
| 20260507194013 | 69 | 355 | 11.0 | 14.0 | 0.00 | 0.00 | 0.00 | 48 | 1016.4 |
| 20260507193513 | 69 | 345 | 7.0 | 14.0 | 0.00 | 0.00 | 0.00 | 49 | 1016.5 |
| 20260507193015 | 69 | 351 | 7.0 | 17.0 | 0.00 | 0.00 | 0.00 | 49 | 1016.4 |
| 20260507192513 | 69 | 340 | 7.0 | 17.0 | 0.00 | 0.00 | 0.00 | 50 | 1016.5 |
| 20260507192013 | 69 | 340 | 7.0 | 17.0 | 0.00 | 0.00 | 0.00 | 49 | 1016.5 |
| 20260507191513 | 69 | 350 | 6.0 | 17.0 | 0.00 | 0.00 | 0.00 | 49 | 1016.5 |
| 20260507191013 | 69 | 343 | 9.0 | 17.0 | 0.00 | 0.00 | 0.00 | 49 | 1016.5 |
| 20260507190513 | 69 | 337 | 7.0 | 17.0 | 0.00 | 0.00 | 0.00 | 50 | 1016.5 |
| 20260507190013 | 69 | 350 | 9.0 | 16.0 | 0.00 | 0.00 | 0.00 | 50 | 1016.5 |
| 20260507185513 | 69 | 338 | 8.0 | 14.0 | 0.00 | 0.00 | 0.00 | 50 | 1016.6 |
| 20260507185013 | 68 | 345 | 8.0 | 14.0 | 0.00 | 0.00 | 0.00 | 50 | 1016.7 |
| 20260507184513 | 68 | 348 | 6.0 | 16.0 | 0.00 | 0.00 | 0.00 | 51 | 1016.7 |
| 20260507184013 | 68 | 338 | 7.0 | 16.0 | 0.00 | 0.00 | 0.00 | 52 | 1016.6 |
| 20260507183513 | 67 | 344 | 10.0 | 16.0 | 0.00 | 0.00 | 0.00 | 52 | 1016.6 |
| 20260507183013 | 67 | 350 | 12.0 | 18.0 | 0.00 | 0.00 | 0.00 | 51 | 1016.7 |
| 20260507182513 | 67 | 343 | 9.0 | 18.0 | 0.00 | 0.00 | 0.00 | 53 | 1016.7 |
| 20260507182013 | 67 | 329 | 12.0 | 18.0 | 0.00 | 0.00 | 0.00 | 51 | 1016.8 |
| 20260507181513 | 67 | 341 | 13.0 | 17.0 | 0.00 | 0.00 | 0.00 | 52 | 1016.8 |
| 20260507181013 | 67 | 338 | 10.0 | 17.0 | 0.00 | 0.00 | 0.00 | 53 | 1016.8 |
| 20260507180513 | 66 | 341 | 12.0 | 17.0 | 0.00 | 0.00 | 0.00 | 52 | 1016.8 |
| 20260507180013 | 67 | 344 | 9.0 | 16.0 | 0.00 | 0.00 | 0.00 | 53 | 1016.8 |
| 20260507175513 | 67 | 352 | 9.0 | 15.0 | 0.00 | 0.00 | 0.00 | 54 | 1016.9 |
| 20260507175013 | 66 | 344 | 8.0 | 15.0 | 0.00 | 0.00 | 0.00 | 55 | 1016.9 |
| 20260507174513 | 66 | 344 | 8.0 | 15.0 | 0.00 | 0.00 | 0.00 | 56 | 1017.0 |
| 20260507174013 | 65 | 357 | 9.0 | 15.0 | 0.00 | 0.00 | 0.00 | 56 | 1017.0 |
| 20260507173513 | 65 | 354 | 8.0 | 15.0 | 0.00 | 0.00 | 0.00 | 60 | 1017.0 |
| 20260507173013 | 64 | 350 | 8.0 | 16.0 | 0.00 | 0.00 | 0.00 | 59 | 1017.0 |
| 20260507172513 | 63 | 350 | 10.0 | 16.0 | 0.00 | 0.00 | 0.00 | 59 | 1017.1 |
| 20260507172013 | 63 | 344 | 11.0 | 16.0 | 0.00 | 0.00 | 0.00 | 59 | 1017.1 |
| 20260507171513 | 63 | 340 | 11.0 | 15.0 | 0.00 | 0.00 | 0.00 | 58 | 1017.1 |
| 20260507171013 | 63 | 341 | 11.0 | 15.0 | 0.00 | 0.00 | 0.00 | 60 | 1017.1 |
| 20260507170513 | 63 | 340 | 10.0 | 15.0 | 0.00 | 0.00 | 0.00 | 59 | 1017.1 |
| 20260507170013 | 63 | 357 | 10.0 | 13.0 | 0.00 | 0.00 | 0.00 | 60 | 1017.1 |
| 20260507165513 | 63 | 4 | 7.0 | 14.0 | 0.00 | 0.00 | 0.00 | 64 | 1017.1 |
| 20260507165013 | 63 | 345 | 6.0 | 14.0 | 0.00 | 0.00 | 0.00 | 64 | 1017.1 |
| 20260507164513 | 63 | 344 | 8.0 | 14.0 | 0.00 | 0.00 | 0.00 | 61 | 1017.1 |
| 20260507164013 | 63 | 338 | 8.0 | 14.0 | 0.00 | 0.00 | 0.00 | 60 | 1017.1 |
| 20260507163512 | 64 | 338 | 7.0 | 13.0 | 0.00 | 0.00 | 0.00 | 61 | 1017.1 |
| 20260507163014 | 63 | 0 | 5.0 | 13.0 | 0.00 | 0.00 | 0.00 | 65 | 1017.1 |
| 20260507162512 | 62 | 350 | 8.0 | 12.0 | 0.00 | 0.00 | 0.00 | 66 | 1017.2 |
| 20260507162013 | 61 | 343 | 6.0 | 13.0 | 0.00 | 0.00 | 0.00 | 67 | 1017.1 |
| 20260507161512 | 61 | 350 | 7.0 | 13.0 | 0.00 | 0.00 | 0.00 | 68 | 1017.2 |
| 20260507161012 | 60 | 338 | 10.0 | 13.0 | 0.00 | 0.00 | 0.00 | 68 | 1017.1 |
| 20260507160514 | 60 | 338 | 9.0 | 11.0 | 0.00 | 0.00 | 0.00 | 71 | 1017.2 |
| 20260507160013 | 59 | 350 | 6.0 | 11.0 | 0.00 | 0.00 | 0.00 | 74 | 1017.2 |
| 20260507155513 | 58 | 340 | 5.0 | 11.0 | 0.00 | 0.00 | 0.00 | 75 | 1017.2 |
| 20260507155014 | 57 | 340 | 6.0 | 10.0 | 0.00 | 0.00 | 0.00 | 77 | 1017.2 |
| 20260507154513 | 57 | 344 | 7.0 | 11.0 | 0.00 | 0.00 | 0.00 | 76 | 1017.2 |
| 20260507154012 | 57 | 338 | 7.0 | 11.0 | 0.00 | 0.00 | 0.00 | 76 | 1017.2 |
| 20260507153513 | 57 | 344 | 7.0 | 11.0 | 0.00 | 0.00 | 0.00 | 77 | 1017.3 |
| 20260507153013 | 56 | 338 | 7.0 | 9.0 | 0.00 | 0.00 | 0.00 | 78 | 1017.2 |
| 20260507152513 | 56 | 344 | 4.0 | 9.0 | 0.00 | 0.00 | 0.00 | 79 | 1017.3 |
| 20260507152013 | 56 | 348 | 6.0 | 9.0 | 0.00 | 0.00 | 0.00 | 80 | 1017.2 |
| 20260507151512 | 55 | 338 | 6.0 | 10.0 | 0.00 | 0.00 | 0.00 | 80 | 1017.1 |
| 20260507151013 | 55 | 350 | 6.0 | 10.0 | 0.00 | 0.00 | 0.00 | 81 | 1017.2 |
| 20260507150513 | 55 | 333 | 6.0 | 10.0 | 0.00 | 0.00 | 0.00 | 81 | 1017.2 |
| 20260507150014 | 55 | 329 | 1.0 | 9.0 | 0.00 | 0.00 | 0.00 | 82 | 1017.1 |
| 20260507145514 | 55 | 331 | 5.0 | 9.0 | 0.00 | 0.00 | 0.00 | 82 | 1017.2 |
| 20260507145013 | 54 | 337 | 5.0 | 9.0 | 0.00 | 0.00 | 0.00 | 82 | 1017.2 |
| 20260507144513 | 54 | 0 | 1.0 | 7.0 | 0.00 | 0.00 | 0.00 | 82 | 1017.2 |
| 20260507144013 | 54 | 337 | 0.0 | 7.0 | 0.00 | 0.00 | 0.00 | 83 | 1017.3 |
| 20260507143512 | 54 | 333 | 3.0 | 7.0 | 0.00 | 0.00 | 0.00 | 83 | 1017.2 |
| 20260507143013 | 54 | 0 | 0.0 | 0.0 | 0.00 | 0.00 | 0.00 | 83 | 1017.2 |
| 20260507142513 | 53 | 0 | 0.0 | 0.0 | 0.00 | 0.00 | 0.00 | 83 | 1017.1 |
| 20260507142014 | 53 | 0 | 0.0 | 7.0 | 0.00 | 0.00 | 0.00 | 83 | 1017.1 |
| 20260507141513 | 53 | 0 | 0.0 | 7.0 | 0.00 | 0.00 | 0.00 | 83 | 1017.1 |
| 20260507141014 | 53 | 354 | 0.0 | 7.0 | 0.00 | 0.00 | 0.00 | 83 | 1017.0 |
| 20260507140512 | 53 | 0 | 0.0 | 0.0 | 0.00 | 0.00 | 0.00 | 83 | 1017.0 |
| 20260507140013 | 53 | 0 | 0.0 | 0.0 | 0.00 | 0.00 | 0.00 | 83 | 1017.0 |
| 20260507135513 | 53 | 0 | 0.0 | 0.0 | 0.00 | 0.00 | 0.00 | 83 | 1016.9 |
| 20260507135013 | 53 | 0 | 0.0 | 0.0 | 0.00 | 0.00 | 0.00 | 83 | 1016.9 |
| 20260507134513 | 53 | 0 | 0.0 | 0.0 | 0.00 | 0.00 | 0.00 | 83 | 1016.8 |
| 20260507134013 | 53 | 0 | 0.0 | 0.0 | 0.00 | 0.00 | 0.00 | 83 | 1016.9 |
| 20260507133513 | 53 | 0 | 0.0 | 0.0 | 0.00 | 0.00 | 0.00 | 82 | 1016.9 |
| 20260507133014 | 53 | 0 | 0.0 | 8.0 | 0.00 | 0.00 | 0.00 | 82 | 1016.9 |
| 20260507132513 | 53 | 0 | 0.0 | 8.0 | 0.00 | 0.00 | 0.00 | 82 | 1016.8 |
| 20260507132012 | 53 | 350 | 0.0 | 8.0 | 0.00 | 0.00 | 0.00 | 82 | 1016.8 |
| 20260507131513 | 53 | 0 | 4.0 | 4.0 | 0.00 | 0.00 | 0.00 | 82 | 1016.8 |
| 20260507131013 | 53 | 0 | 0.0 | 2.0 | 0.00 | 0.00 | 0.00 | 82 | 1016.9 |
| 20260507130513 | 53 | 338 | 0.0 | 2.0 | 0.00 | 0.00 | 0.00 | 82 | 1016.8 |
| 20260507130013 | 53 | 0 | 0.0 | 0.0 | 0.00 | 0.00 | 0.00 | 82 | 1016.9 |
| 20260507125513 | 53 | 0 | 0.0 | 6.0 | 0.00 | 0.00 | 0.00 | 82 | 1016.9 |
| 20260507125013 | 53 | 350 | 0.0 | 6.0 | 0.00 | 0.00 | 0.00 | 82 | 1016.9 |
| 20260507124513 | 53 | 336 | 0.0 | 6.0 | 0.00 | 0.00 | 0.00 | 82 | 1016.8 |
| 20260507124013 | 54 | 0 | 0.0 | 0.0 | 0.00 | 0.00 | 0.00 | 82 | 1016.8 |
| 20260507123512 | 54 | 0 | 0.0 | 6.0 | 0.00 | 0.00 | 0.00 | 82 | 1016.9 |
| 20260507122513 | 54 | 322 | 0.0 | 6.0 | 0.00 | 0.00 | 0.00 | 82 | 1017.0 |
| 20260507122013 | 54 | 355 | 0.0 | 3.0 | 0.00 | 0.00 | 0.00 | 82 | 1017.1 |
| 20260507121512 | 54 | 0 | 0.0 | 5.0 | 0.00 | 0.00 | 0.00 | 82 | 1017.1 |
| 20260507121013 | 54 | 0 | 0.0 | 5.0 | 0.00 | 0.00 | 0.00 | 82 | 1017.1 |
| 20260507120513 | 54 | 357 | 0.0 | 5.0 | 0.00 | 0.00 | 0.00 | 82 | 1017.1 |
| 20260507120012 | 54 | 0 | 0.0 | 0.0 | 0.00 | 0.00 | 0.00 | 83 | 1017.1 |
| 20260507115512 | 54 | 0 | 0.0 | 6.0 | 0.00 | 0.00 | 0.00 | 83 | 1017.1 |
| 20260507115013 | 54 | 0 | 0.0 | 6.0 | 0.00 | 0.00 | 0.00 | 83 | 1017.2 |
| 20260507114513 | 54 | 357 | 0.0 | 6.0 | 0.00 | 0.00 | 0.00 | 83 | 1017.2 |
| 20260507114012 | 54 | 338 | 0.0 | 6.0 | 0.00 | 0.00 | 0.00 | 83 | 1017.2 |
| 20260507113513 | 54 | 340 | 2.0 | 4.0 | 0.00 | 0.00 | 0.00 | 83 | 1017.3 |
| 20260507113012 | 54 | 0 | 1.0 | 1.0 | 0.00 | 0.00 | 0.00 | 83 | 1017.2 |
| 20260507112514 | 54 | 0 | 0.0 | 0.0 | 0.00 | 0.00 | 0.00 | 83 | 1017.2 |
| 20260507112013 | 54 | 0 | 0.0 | 3.0 | 0.00 | 0.00 | 0.00 | 83 | 1017.3 |
| 20260507111512 | 54 | 0 | 0.0 | 3.0 | 0.00 | 0.00 | 0.00 | 83 | 1017.3 |
| 20260507111012 | 54 | 354 | 0.0 | 3.0 | 0.00 | 0.00 | 0.00 | 84 | 1017.3 |
| 20260507110512 | 54 | 0 | 0.0 | 0.0 | 0.00 | 0.00 | 0.00 | 83 | 1017.3 |
| 20260507110012 | 54 | 0 | 0.0 | 0.0 | 0.00 | 0.00 | 0.00 | 83 | 1017.3 |
| 20260507105513 | 54 | 0 | 0.0 | 8.0 | 0.00 | 0.00 | 0.00 | 83 | 1017.3 |
| 20260507105013 | 54 | 0 | 0.0 | 8.0 | 0.00 | 0.00 | 0.00 | 83 | 1017.3 |
| 20260507104512 | 54 | 354 | 0.0 | 8.0 | 0.00 | 0.00 | 0.00 | 83 | 1017.4 |
| 20260507104016 | 54 | 345 | 1.0 | 8.0 | 0.00 | 0.00 | 0.00 | 83 | 1017.4 |
| 20260507103512 | 54 | 0 | 0.0 | 6.0 | 0.00 | 0.00 | 0.00 | 83 | 1017.5 |
| 20260507103012 | 54 | 0 | 1.0 | 6.0 | 0.00 | 0.00 | 0.00 | 82 | 1017.6 |
| 20260507102512 | 54 | 333 | 0.0 | 6.0 | 0.00 | 0.00 | 0.00 | 82 | 1017.6 |
| 20260507102012 | 54 | 0 | 2.0 | 6.0 | 0.00 | 0.00 | 0.00 | 82 | 1017.7 |
| 20260507101512 | 55 | 338 | 0.0 | 6.0 | 0.00 | 0.00 | 0.00 | 82 | 1017.7 |
| 20260507101012 | 54 | 347 | 0.0 | 2.0 | 0.00 | 0.00 | 0.00 | 82 | 1017.7 |
| 20260507100512 | 54 | 0 | 0.0 | 0.0 | 0.00 | 0.00 | 0.00 | 82 | 1017.7 |
| 20260507100012 | 54 | 0 | 0.0 | 0.0 | 0.00 | 0.00 | 0.00 | 82 | 1017.8 |
| 20260507095512 | 54 | 0 | 0.0 | 0.0 | 0.00 | 0.00 | 0.00 | 82 | 1017.8 |
| 20260507095012 | 55 | 0 | 0.0 | 6.0 | 0.00 | 0.00 | 0.00 | 82 | 1017.8 |
| 20260507094513 | 55 | 0 | 0.0 | 6.0 | 0.00 | 0.00 | 0.00 | 82 | 1017.8 |
| 20260507094012 | 55 | 330 | 0.0 | 6.0 | 0.00 | 0.00 | 0.00 | 82 | 1017.9 |
| 20260507093512 | 55 | 0 | 0.0 | 0.0 | 0.00 | 0.00 | 0.00 | 82 | 1017.9 |
| 20260507093012 | 55 | 0 | 0.0 | 6.0 | 0.00 | 0.00 | 0.00 | 83 | 1017.9 |
| 20260507092512 | 55 | 0 | 0.0 | 6.0 | 0.00 | 0.00 | 0.00 | 83 | 1018.0 |
| 20260507092012 | 55 | 341 | 0.0 | 6.0 | 0.00 | 0.00 | 0.00 | 83 | 1018.0 |
| 20260507091513 | 55 | 0 | 0.0 | 0.0 | 0.00 | 0.00 | 0.00 | 83 | 1018.1 |
| 20260507091012 | 55 | 0 | 0.0 | 0.0 | 0.00 | 0.00 | 0.00 | 83 | 1018.1 |
| 20260507090513 | 55 | 0 | 0.0 | 0.0 | 0.00 | 0.00 | 0.00 | 83 | 1018.1 |
| 20260507090012 | 55 | 0 | 0.0 | 0.0 | 0.00 | 0.00 | 0.00 | 83 | 1018.2 |
| 20260507085512 | 55 | 0 | 0.0 | 0.0 | 0.00 | 0.00 | 0.00 | 83 | 1018.2 |
| 20260507085013 | 55 | 0 | 0.0 | 0.0 | 0.00 | 0.00 | 0.00 | 84 | 1018.2 |
| 20260507084512 | 55 | 0 | 0.0 | 0.0 | 0.00 | 0.00 | 0.00 | 84 | 1018.2 |
| 20260507084013 | 55 | 0 | 0.0 | 0.0 | 0.00 | 0.00 | 0.00 | 84 | 1018.3 |
| 20260507083512 | 55 | 0 | 0.0 | 0.0 | 0.00 | 0.00 | 0.00 | 84 | 1018.3 |
| 20260507083012 | 55 | 0 | 0.0 | 0.0 | 0.00 | 0.00 | 0.00 | 83 | 1018.2 |
| 20260507082512 | 55 | 0 | 0.0 | 0.0 | 0.00 | 0.00 | 0.00 | 83 | 1018.3 |
| 20260507082012 | 55 | 0 | 0.0 | 0.0 | 0.00 | 0.00 | 0.00 | 83 | 1018.3 |
| 20260507081512 | 55 | 0 | 0.0 | 0.0 | 0.00 | 0.00 | 0.00 | 83 | 1018.2 |
| 20260507081012 | 55 | 0 | 0.0 | 0.0 | 0.00 | 0.00 | 0.00 | 83 | 1018.2 |
| 20260507080513 | 55 | 0 | 0.0 | 7.0 | 0.00 | 0.00 | 0.00 | 84 | 1018.2 |
| 20260507080012 | 55 | 0 | 0.0 | 7.0 | 0.00 | 0.00 | 0.00 | 84 | 1018.2 |
| 20260507075512 | 55 | 343 | 0.0 | 7.0 | 0.00 | 0.00 | 0.00 | 84 | 1018.2 |
| 20260507075012 | 55 | 330 | 1.0 | 12.0 | 0.00 | 0.00 | 0.00 | 84 | 1018.3 |
| 20260507074515 | 55 | 351 | 0.0 | 12.0 | 0.00 | 0.00 | 0.00 | 84 | 1018.2 |
| 20260507074012 | 55 | 333 | 0.0 | 12.0 | 0.00 | 0.00 | 0.00 | 84 | 1018.2 |
| 20260507073512 | 55 | 348 | 5.0 | 10.0 | 0.00 | 0.00 | 0.00 | 85 | 1018.2 |
| 20260507073016 | 55 | 340 | 4.0 | 9.0 | 0.00 | 0.00 | 0.00 | 85 | 1018.2 |
| 20260507072512 | 55 | 0 | 0.0 | 4.0 | 0.00 | 0.00 | 0.00 | 85 | 1018.2 |
| 20260507072012 | 56 | 352 | 0.0 | 10.0 | 0.00 | 0.00 | 0.00 | 85 | 1018.2 |
| 20260507071512 | 56 | 0 | 2.0 | 10.0 | 0.00 | 0.00 | 0.00 | 85 | 1018.1 |
| 20260507071013 | 56 | 344 | 0.0 | 10.0 | 0.00 | 0.00 | 0.00 | 85 | 1018.1 |
| 20260507070512 | 56 | 354 | 1.0 | 8.0 | 0.00 | 0.00 | 0.00 | 85 | 1018.2 |
| 20260507070016 | 56 | 326 | 3.0 | 14.0 | 0.00 | 0.00 | 0.00 | 85 | 1018.2 |
| 20260507065512 | 56 | 340 | 0.0 | 14.0 | 0.00 | 0.00 | 0.00 | 85 | 1018.2 |
| 20260507065012 | 56 | 345 | 0.0 | 14.0 | 0.00 | 0.00 | 0.00 | 85 | 1018.2 |
| 20260507064513 | 56 | 341 | 3.0 | 12.0 | 0.00 | 0.00 | 0.00 | 85 | 1018.2 |
| 20260507064015 | 56 | 348 | 2.0 | 12.0 | 0.00 | 0.00 | 0.00 | 85 | 1018.2 |
| 20260507063512 | 56 | 334 | 0.0 | 12.0 | 0.00 | 0.00 | 0.00 | 85 | 1018.2 |
| 20260507063012 | 56 | 340 | 7.0 | 10.0 | 0.00 | 0.00 | 0.00 | 85 | 1018.3 |
| 20260507062513 | 56 | 331 | 0.0 | 7.0 | 0.00 | 0.00 | 0.00 | 85 | 1018.3 |
| 20260507062013 | 56 | 355 | 1.0 | 7.0 | 0.00 | 0.00 | 0.00 | 85 | 1018.3 |
| 20260507061512 | 56 | 0 | 0.0 | 12.0 | 0.00 | 0.00 | 0.00 | 85 | 1018.3 |
| 20260507061013 | 56 | 334 | 0.0 | 12.0 | 0.00 | 0.00 | 0.00 | 85 | 1018.4 |
| 20260507060513 | 56 | 337 | 5.0 | 12.0 | 0.00 | 0.00 | 0.00 | 85 | 1018.4 |
| 20260507060012 | 56 | 350 | 4.0 | 9.0 | 0.00 | 0.00 | 0.00 | 85 | 1018.4 |
| 20260507055513 | 56 | 357 | 4.0 | 11.0 | 0.00 | 0.00 | 0.00 | 85 | 1018.4 |
| 20260507055017 | 56 | 344 | 2.0 | 11.0 | 0.00 | 0.00 | 0.00 | 85 | 1018.5 |
| 20260507054513 | 56 | 341 | 6.0 | 11.0 | 0.00 | 0.00 | 0.00 | 86 | 1018.5 |
| 20260507054013 | 56 | 345 | 7.0 | 11.0 | 0.00 | 0.00 | 0.00 | 86 | 1018.5 |
| 20260507053512 | 56 | 341 | 5.0 | 11.0 | 0.00 | 0.00 | 0.00 | 86 | 1018.5 |
| 20260507053012 | 56 | 350 | 4.0 | 11.0 | 0.00 | 0.00 | 0.00 | 87 | 1018.5 |
| 20260507052512 | 56 | 345 | 6.0 | 11.0 | 0.00 | 0.00 | 0.00 | 88 | 1018.5 |
| 20260507052013 | 56 | 338 | 4.0 | 11.0 | 0.00 | 0.00 | 0.00 | 88 | 1018.5 |
| 20260507051512 | 56 | 338 | 6.0 | 11.0 | 0.00 | 0.00 | 0.00 | 88 | 1018.5 |
| 20260507051012 | 56 | 344 | 6.0 | 11.0 | 0.00 | 0.00 | 0.00 | 88 | 1018.5 |
| 20260507050513 | 56 | 352 | 6.0 | 11.0 | 0.00 | 0.00 | 0.00 | 89 | 1018.5 |
| 20260507050012 | 56 | 333 | 6.0 | 11.0 | 0.00 | 0.00 | 0.00 | 89 | 1018.5 |
| 20260507045512 | 56 | 337 | 6.0 | 11.0 | 0.00 | 0.00 | 0.00 | 89 | 1018.5 |
| 20260507045012 | 56 | 357 | 7.0 | 11.0 | 0.00 | 0.00 | 0.00 | 89 | 1018.5 |
| 20260507044512 | 56 | 343 | 7.0 | 13.0 | 0.00 | 0.00 | 0.00 | 89 | 1018.6 |
| 20260507044016 | 56 | 337 | 8.0 | 13.0 | 0.00 | 0.00 | 0.00 | 89 | 1018.6 |
| 20260507043512 | 56 | 338 | 6.0 | 13.0 | 0.00 | 0.00 | 0.00 | 89 | 1018.6 |
| 20260507043014 | 56 | 355 | 6.0 | 12.0 | 0.00 | 0.00 | 0.00 | 89 | 1018.6 |
| 20260507042512 | 56 | 338 | 7.0 | 11.0 | 0.00 | 0.00 | 0.00 | 88 | 1018.6 |
| 20260507042012 | 56 | 343 | 5.0 | 10.0 | 0.00 | 0.00 | 0.00 | 88 | 1018.6 |
| 20260507041512 | 56 | 340 | 8.0 | 10.0 | 0.00 | 0.00 | 0.00 | 88 | 1018.6 |
| 20260507041012 | 56 | 347 | 6.0 | 8.0 | 0.00 | 0.00 | 0.00 | 88 | 1018.6 |
| 20260507040512 | 57 | 340 | 0.0 | 8.0 | 0.00 | 0.00 | 0.00 | 88 | 1018.5 |
| 20260507040013 | 57 | 337 | 1.0 | 11.0 | 0.00 | 0.00 | 0.00 | 88 | 1018.5 |
| 20260507035513 | 57 | 348 | 6.0 | 11.0 | 0.00 | 0.00 | 0.00 | 88 | 1018.5 |
| 20260507035012 | 57 | 343 | 5.0 | 11.0 | 0.00 | 0.00 | 0.00 | 88 | 1018.5 |
| 20260507034514 | 57 | 0 | 2.0 | 10.0 | 0.00 | 0.00 | 0.00 | 88 | 1018.5 |
| 20260507034012 | 57 | 345 | 0.0 | 10.0 | 0.00 | 0.00 | 0.00 | 88 | 1018.4 |
| 20260507033513 | 57 | 350 | 6.0 | 9.0 | 0.00 | 0.00 | 0.00 | 87 | 1018.4 |
| 20260507033013 | 57 | 338 | 6.0 | 8.0 | 0.00 | 0.00 | 0.00 | 87 | 1018.3 |
| 20260507032512 | 57 | 0 | 0.0 | 8.0 | 0.00 | 0.00 | 0.00 | 87 | 1018.3 |
| 20260507032013 | 57 | 348 | 0.0 | 8.0 | 0.00 | 0.00 | 0.00 | 86 | 1018.3 |
| 20260507031516 | 57 | 340 | 4.0 | 8.0 | 0.00 | 0.00 | 0.00 | 86 | 1018.3 |
| 20260507031012 | 57 | 343 | 2.0 | 8.0 | 0.00 | 0.00 | 0.00 | 86 | 1018.3 |
| 20260507030512 | 57 | 343 | 0.0 | 8.0 | 0.00 | 0.00 | 0.00 | 86 | 1018.3 |
| 20260507030012 | 57 | 348 | 0.0 | 8.0 | 0.00 | 0.00 | 0.00 | 86 | 1018.3 |
| 20260507025512 | 57 | 350 | 3.0 | 8.0 | 0.00 | 0.00 | 0.00 | 85 | 1018.3 |
| 20260507025012 | 57 | 331 | 1.0 | 8.0 | 0.00 | 0.00 | 0.00 | 85 | 1018.3 |
| 20260507024512 | 58 | 338 | 0.0 | 8.0 | 0.00 | 0.00 | 0.00 | 85 | 1018.3 |
| 20260507024012 | 58 | 341 | 6.0 | 8.0 | 0.00 | 0.00 | 0.00 | 84 | 1018.2 |
| 20260507023512 | 58 | 351 | 5.0 | 8.0 | 0.00 | 0.00 | 0.00 | 84 | 1018.2 |
| 20260507023014 | 58 | 347 | 5.0 | 8.0 | 0.00 | 0.00 | 0.00 | 83 | 1018.2 |
| 20260507022512 | 58 | 0 | 0.0 | 0.0 | 0.00 | 0.00 | 0.00 | 83 | 1018.2 |
| 20260507022012 | 58 | 0 | 0.0 | 0.0 | 0.00 | 0.00 | 0.00 | 82 | 1018.2 |
| 20260507021512 | 58 | 0 | 0.0 | 0.0 | 0.00 | 0.00 | 0.00 | 81 | 1018.2 |
| 20260507021012 | 59 | 0 | 0.0 | 0.0 | 0.00 | 0.00 | 0.00 | 81 | 1018.2 |
| 20260507020512 | 59 | 0 | 0.0 | 0.0 | 0.00 | 0.00 | 0.00 | 81 | 1018.2 |
| 20260507020013 | 59 | 0 | 0.0 | 0.0 | 0.00 | 0.00 | 0.00 | 81 | 1018.3 |
| 20260507015513 | 59 | 0 | 0.0 | 0.0 | 0.00 | 0.00 | 0.00 | 80 | 1018.3 |
| 20260507015012 | 59 | 0 | 0.0 | 0.0 | 0.00 | 0.00 | 0.00 | 80 | 1018.4 |
| 20260507014512 | 59 | 0 | 0.0 | 0.0 | 0.00 | 0.00 | 0.00 | 80 | 1018.4 |
| 20260507014013 | 59 | 0 | 0.0 | 0.0 | 0.00 | 0.00 | 0.00 | 80 | 1018.4 |
| 20260507013512 | 60 | 0 | 0.0 | 0.0 | 0.00 | 0.00 | 0.00 | 80 | 1018.4 |
| 20260507013014 | 60 | 0 | 0.0 | 0.0 | 0.00 | 0.00 | 0.00 | 79 | 1018.5 |